timestamp,surface_pressure_avg,surface_temp_avg,battery_voltage,lat,long
2021-06-22 00:09:01+00:00,266.2197,12.6,13.29,47.84626,-54.09684
2021-06-22 00:19:00+00:00,261.8931,12.6,12.97,47.84626,-54.09684
2021-06-22 00:29:00+00:00,255.0214,12.64,12.97,47.84626,-54.09684
2021-06-22 00:39:00+00:00,246.0714,12.7,12.97,47.84626,-54.09684
2021-06-22 00:49:00+00:00,240.6064,12.7,12.97,47.84626,-54.09684
2021-06-22 00:59:00+00:00,237.0331,12.76,12.97,47.84626,-54.09684
2021-06-22 01:09:00+00:00,231.3465,12.8,12.97,47.84626,-54.09684
2021-06-22 01:19:00+00:00,223.5881,12.8,12.73,47.84626,-54.09684
2021-06-22 01:29:00+00:00,218.0164,12.87,12.73,47.84626,-54.09684
2021-06-22 01:39:00+00:00,214.6414,12.9,12.73,47.84626,-54.09684
2021-06-22 01:49:00+00:00,209.2098,12.9,12.73,47.84626,-54.09684
2021-06-22 01:59:00+00:00,204.1531,12.9,12.73,47.84626,-54.09684
2021-06-22 02:09:00+00:00,202.0581,12.9,12.73,47.84626,-54.09684
2021-06-22 02:19:01+00:00,199.9698,12.9,12.73,47.84626,-54.09684
2021-06-22 02:29:01+00:00,197.1847,12.9,12.73,47.84626,-54.09684
2021-06-22 02:39:01+00:00,196.6165,12.9,12.73,47.84626,-54.09684
2021-06-22 02:49:01+00:00,200.2531,12.9,12.73,47.84626,-54.09684
2021-06-22 02:59:01+00:00,198.8564,12.9,12.73,47.84626,-54.09684
2021-06-22 03:09:01+00:00,194.6681,12.9,12.73,47.84626,-54.09684
2021-06-22 03:19:01+00:00,194.4815,12.9,12.73,47.84626,-54.09684
2021-06-22 03:29:01+00:00,194.8398,12.9,12.73,47.84626,-54.09684
2021-06-22 03:39:01+00:00,195.1531,12.9,12.73,47.84626,-54.09684
2021-06-22 03:49:01+00:00,197.6248,12.9,12.73,47.84626,-54.09684
2021-06-22 03:59:01+00:00,200.7131,12.9,12.73,47.84626,-54.09684
2021-06-22 04:09:01+00:00,201.2014,12.9,12.73,47.84626,-54.09684
2021-06-22 04:19:00+00:00,200.7614,12.9,12.73,47.84626,-54.09684
2021-06-22 04:29:00+00:00,199.6398,12.9,12.73,47.84626,-54.09684
2021-06-22 04:39:00+00:00,199.8114,12.93,12.73,47.84626,-54.09684
2021-06-22 04:49:00+00:00,203.4681,12.97,12.73,47.84626,-54.09684
2021-06-22 04:59:00+00:00,206.1064,12.98,12.73,47.84626,-54.09684
2021-06-22 05:09:00+00:00,206.2564,13.0,12.73,47.84626,-54.09684
2021-06-22 05:19:00+00:00,210.5081,13.0,12.73,47.84626,-54.09684
2021-06-22 05:29:00+00:00,215.1398,13.0,12.73,47.84626,-54.09684
2021-06-22 05:39:00+00:00,217.1598,13.03,12.73,47.84626,-54.09684
2021-06-22 05:49:00+00:00,223.6097,13.07,12.73,47.84626,-54.09684
2021-06-22 05:59:00+00:00,232.9264,13.07,12.73,47.84626,-54.09684
2021-06-22 06:09:00+00:00,238.4948,13.04,12.73,47.84626,-54.09684
2021-06-22 06:19:00+00:00,243.1631,13.07,12.65,47.84626,-54.09684
2021-06-22 06:29:00+00:00,249.8481,13.09,12.65,47.84626,-54.09684
2021-06-22 06:39:00+00:00,257.0614,13.08,12.65,47.84626,-54.09684
2021-06-22 06:49:00+00:00,264.3414,13.08,12.65,47.84626,-54.09684
2021-06-22 06:59:00+00:00,270.5847,13.06,12.65,47.84626,-54.09684
2021-06-22 07:09:00+00:00,278.6214,13.03,12.65,47.84626,-54.09684
2021-06-22 07:19:00+00:00,288.6497,13.06,12.65,47.84626,-54.09684
2021-06-22 07:29:00+00:00,295.9897,13.07,12.65,47.84626,-54.09684
2021-06-22 07:39:00+00:00,302.4247,13.05,12.65,47.84626,-54.09684
2021-06-22 07:49:00+00:00,308.668,13.05,12.65,47.84626,-54.09684
2021-06-22 07:59:00+00:00,314.128,13.0,12.65,47.84626,-54.09684
2021-06-22 08:09:00+00:00,318.5963,13.0,12.65,47.84626,-54.09684
2021-06-22 08:19:01+00:00,324.6714,12.98,12.65,47.84626,-54.09684
2021-06-22 08:29:01+00:00,325.8563,12.99,12.65,47.84626,-54.09684
2021-06-22 08:39:01+00:00,326.1414,13.0,12.65,47.84626,-54.09684
2021-06-22 08:49:01+00:00,326.71299999999997,13.0,12.65,47.84626,-54.09684
2021-06-22 08:59:01+00:00,330.0147,13.0,12.65,47.84626,-54.09684
2021-06-22 09:09:01+00:00,329.7113,12.99,12.65,47.84626,-54.09684
2021-06-22 09:19:01+00:00,334.2029,12.95,12.81,47.84626,-54.09684
2021-06-22 09:29:01+00:00,336.7196,12.9,12.81,47.84626,-54.09684
2021-06-22 09:39:01+00:00,337.4346,12.9,12.81,47.84626,-54.09684
2021-06-22 09:49:01+00:00,336.903,12.9,12.81,47.84626,-54.09684
2021-06-22 09:59:01+00:00,337.0797,12.94,12.81,47.84626,-54.09684
2021-06-22 10:09:01+00:00,337.6497,12.92,12.81,47.84626,-54.09684
2021-06-22 10:19:01+00:00,335.1479,13.0,12.97,47.84626,-54.09684
2021-06-22 10:29:01+00:00,329.4496,13.05,12.97,47.84626,-54.09684
2021-06-22 10:39:01+00:00,328.2646,13.0,12.97,47.84626,-54.09684
2021-06-22 10:49:01+00:00,324.9296,13.0,12.97,47.84626,-54.09684
2021-06-22 10:59:01+00:00,318.128,13.0,12.97,47.84626,-54.09684
2021-06-22 11:09:01+00:00,307.423,13.0,12.97,47.84626,-54.09684
2021-06-22 11:19:00+00:00,308.438,13.0,14.0,47.84626,-54.09684
2021-06-22 11:29:00+00:00,305.7913,13.0,14.0,47.84626,-54.09684
2021-06-22 11:39:00+00:00,293.2614,13.0,14.0,47.84626,-54.09684
2021-06-22 11:49:00+00:00,281.2365,13.07,14.0,47.84626,-54.09684
2021-06-22 11:59:00+00:00,277.4831,13.04,14.0,47.84626,-54.09684
2021-06-22 12:09:00+00:00,271.1914,13.0,14.0,47.84626,-54.09684
2021-06-22 12:19:01+00:00,258.9198,13.0,14.24,47.84626,-54.09684
2021-06-22 12:29:01+00:00,248.9781,13.02,14.24,47.84626,-54.09684
2021-06-22 12:39:01+00:00,241.9481,13.07,14.24,47.84626,-54.09684
2021-06-22 12:49:01+00:00,234.0447,13.09,14.24,47.84626,-54.09684
2021-06-22 12:59:01+00:00,225.6831,13.1,14.24,47.84626,-54.09684
2021-06-22 13:09:01+00:00,219.4414,13.1,14.24,47.84626,-54.09684
2021-06-22 13:19:01+00:00,213.8814,13.1,14.4,47.84626,-54.09684
2021-06-22 13:29:01+00:00,207.4231,13.18,14.4,47.84626,-54.09684
2021-06-22 13:39:01+00:00,201.5598,13.2,14.4,47.84626,-54.09684
2021-06-22 13:49:01+00:00,198.8682,13.29,14.4,47.84626,-54.09684
2021-06-22 13:59:01+00:00,197.3015,13.33,14.4,47.84626,-54.09684
2021-06-22 14:09:01+00:00,193.8931,13.4,14.4,47.84626,-54.09684
2021-06-22 14:19:00+00:00,189.6698,13.42,14.32,47.84626,-54.09684
2021-06-22 14:29:00+00:00,186.8065,13.5,14.32,47.84626,-54.09684
2021-06-22 14:39:00+00:00,182.2165,13.5,14.32,47.84626,-54.09684
2021-06-22 14:49:00+00:00,178.6365,13.54,14.32,47.84626,-54.09684
2021-06-22 14:59:00+00:00,179.3098,13.58,14.32,47.84626,-54.09684
2021-06-22 15:09:00+00:00,178.0332,13.6,14.32,47.84626,-54.09684
2021-06-22 15:19:01+00:00,176.1848,13.59,14.32,47.84626,-54.09684
2021-06-22 15:29:01+00:00,176.8498,13.5,14.32,47.84626,-54.09684
2021-06-22 15:39:01+00:00,179.6632,13.5,14.32,47.84626,-54.09684
2021-06-22 15:49:01+00:00,183.8781,13.5,14.32,47.84626,-54.09684
2021-06-22 15:59:01+00:00,186.5832,13.46,14.32,47.84626,-54.09684
2021-06-22 16:09:01+00:00,187.3498,13.4,14.32,47.84626,-54.09684
2021-06-22 16:19:01+00:00,194.4331,13.4,14.24,47.84626,-54.09684
2021-06-22 16:29:01+00:00,196.2465,13.3,14.24,47.84626,-54.09684
2021-06-22 16:39:01+00:00,190.9731,13.3,14.24,47.84626,-54.09684
2021-06-22 16:49:01+00:00,195.6214,13.3,14.24,47.84626,-54.09684
2021-06-22 16:59:01+00:00,204.9147,13.2,14.24,47.84626,-54.09684
2021-06-22 17:09:01+00:00,205.5031,13.1,14.24,47.84626,-54.09684
2021-06-22 17:19:00+00:00,207.1098,13.0,14.08,47.84626,-54.09684
2021-06-22 17:29:00+00:00,217.4448,13.0,14.08,47.84626,-54.09684
2021-06-22 17:39:00+00:00,226.5414,12.9,14.08,47.84626,-54.09684
2021-06-22 17:49:00+00:00,230.6481,12.9,14.08,47.84626,-54.09684
2021-06-22 17:59:00+00:00,237.4231,12.9,14.08,47.84626,-54.09684
2021-06-22 18:09:00+00:00,246.5581,12.9,14.08,47.84626,-54.09684
2021-06-22 18:19:00+00:00,250.6614,12.9,13.84,47.84626,-54.09684
2021-06-22 18:29:00+00:00,256.5914,12.83,13.84,47.84626,-54.09684
2021-06-22 18:39:00+00:00,265.0197,12.8,13.84,47.84626,-54.09684
2021-06-22 18:49:00+00:00,271.4214,12.7,13.84,47.84626,-54.09684
2021-06-22 18:59:00+00:00,272.8297,12.77,13.84,47.84626,-54.09684
2021-06-22 19:09:00+00:00,281.8164,12.7,13.84,47.84626,-54.09684
2021-06-22 19:19:01+00:00,293.298,12.65,14.0,47.84626,-54.09684
2021-06-22 19:29:01+00:00,300.5897,12.75,14.0,47.84626,-54.09684
2021-06-22 19:39:01+00:00,308.4214,12.8,14.0,47.84626,-54.09684
2021-06-22 19:49:01+00:00,319.8214,12.5,14.0,47.84626,-54.09684
2021-06-22 19:59:01+00:00,326.8396,12.54,14.0,47.84626,-54.09684
2021-06-22 20:09:01+00:00,329.913,12.69,14.0,47.84626,-54.09684
2021-06-22 20:19:01+00:00,337.9896,12.6,13.84,47.84626,-54.09684
2021-06-22 20:29:01+00:00,349.1363,12.5,13.84,47.84626,-54.09684
2021-06-22 20:39:01+00:00,352.3997,12.5,13.84,47.84626,-54.09684
2021-06-22 20:49:01+00:00,352.4746,12.5,13.84,47.84626,-54.09684
2021-06-22 20:59:01+00:00,358.3229,12.4,13.84,47.84626,-54.09684
2021-06-22 21:09:01+00:00,365.983,12.39,13.84,47.84626,-54.09684
2021-06-22 21:19:01+00:00,364.2879,12.4,13.76,47.84626,-54.09684
2021-06-22 21:29:01+00:00,361.5813,12.4,13.76,47.84626,-54.09684
2021-06-22 21:39:01+00:00,366.3895,12.3,13.76,47.84626,-54.09684
2021-06-22 21:49:01+00:00,368.0096,12.35,13.76,47.84626,-54.09684
2021-06-22 21:59:01+00:00,362.0914,12.4,13.76,47.84626,-54.09684
2021-06-22 22:09:01+00:00,361.028,12.4,13.76,47.84626,-54.09684
2021-06-22 22:19:00+00:00,358.3913,12.4,13.44,47.84626,-54.09684
2021-06-22 22:29:00+00:00,355.2363,12.48,13.44,47.84626,-54.09684
2021-06-22 22:39:00+00:00,355.8729,12.5,13.44,47.84626,-54.09684
2021-06-22 22:49:00+00:00,353.9979,12.5,13.44,47.84626,-54.09684
2021-06-22 22:59:00+00:00,346.9013,12.5,13.44,47.84626,-54.09684
2021-06-22 23:09:00+00:00,340.4063,12.5,13.44,47.84626,-54.09684
2021-06-22 23:19:00+00:00,335.8130000000001,12.49,13.05,47.84626,-54.09684
2021-06-22 23:29:00+00:00,328.918,12.5,13.05,47.84626,-54.09684
2021-06-22 23:39:00+00:00,323.6696,12.6,13.05,47.84626,-54.09684
2021-06-22 23:49:00+00:00,322.4997,12.6,13.05,47.84626,-54.09684
2021-06-22 23:59:00+00:00,312.9947,12.63,13.05,47.84626,-54.09684
